This demonstration page uses our WeatherBlox Daily Observations layout. Learn more.

Left ArrowRight Arrow

39.29038, -76.61219

Hourly Observations for September 21, 2020

Temp ( °F °C ) Dew Point ( °F °C ) Humidity (%) Winds ( mph kmh ) Pressure ( in mb ) Visibility ( mi km ) Precip ( " mm )
12:54 am 00:54 Clear 48 8.9 41 5 77 77 Calm 30.51 1033 10 16 0.00 0.00
1:54 am 01:54 Clear 49 9.4 41 5 74 74 Calm 30.52 1034 10 16 0.00 0.00
2:54 am 02:54 Clear 45 7.2 40 4.4 83 83 Calm 30.51 1033 10 16 0.00 0.00
3:54 am 03:54 Clear 45 7.2 39 3.9 80 80 W 3 6 30.51 1033 10 16 0.00 0.00
4:54 am 04:54 Clear 43 6.1 38 3.3 82 82 WNW 3 6 30.52 1033 10 16 0.00 0.00
5:54 am 05:54 Clear 45 7.2 37 2.8 74 74 W 3 6 30.52 1034 10 16 0.00 0.00
6:54 am 06:54 Mostly Clear 45 7.2 37 2.8 74 74 Calm 30.52 1034 10 16 0.00 0.00
7:54 am 07:54 Mostly Sunny 47 8.3 40 4.4 77 77 WNW 3 6 30.54 1034 10 16 0.00 0.00
8:54 am 08:54 Mostly Sunny 56 13.3 39 3.9 53 53 VRB 6 9 30.55 1034 10 16 0.00 0.00
9:54 am 09:54 Mostly Sunny 60 15.6 37 2.8 42 42 ENE 16 26 30.56 1035 10 16 0.00 0.00
10:54 am 10:54 Mostly Sunny 63 17.2 35 1.7 35 35 ENE 17 28 30.56 1035 10 16 0.00 0.00
11:54 am 11:54 Mostly Sunny 64 17.8 35 1.7 34 34 NE 15 24 30.55 1035 10 16 0.00 0.00
12:54 pm 12:54 Mostly Sunny 65 18.3 34 1.1 32 32 ENE 12 19 30.54 1034 10 16 0.00 0.00
1:54 pm 13:54 Mostly Sunny 65 18.3 34 1.1 32 32 ENE 7 11 30.51 1033 10 16 0.00 0.00
2:54 pm 14:54 Mostly Sunny 66 18.9 35 1.7 32 32 VRB 6 9 30.48 1032 10 16 0.00 0.00
3:54 pm 15:54 Mostly Sunny 66 18.9 35 1.7 32 32 ESE 7 11 30.46 1032 10 16 0.00 0.00
4:54 pm 16:54 Mostly Sunny 66 18.9 35 1.7 32 32 ESE 5 7 30.44 1031 10 16 0.00 0.00
5:54 pm 17:54 Mostly Sunny 65 18.3 36 2.2 34 34 ESE 6 9 30.43 1030 10 16 0.00 0.00
6:54 pm 18:54 Mostly Sunny 61 16.1 38 3.3 43 43 ESE 5 7 30.42 1030 10 16 0.00 0.00
7:54 pm 19:54 Mostly Clear 57 13.9 41 5 55 55 Calm 30.42 1030 10 16 0.00 0.00
8:54 pm 20:54 Mostly Clear 52 11.1 44 6.7 75 75 Calm 30.41 1030 10 16 0.00 0.00
9:54 pm 21:54 Mostly Clear 49 9.4 44 6.7 83 83 Calm 30.40 1029 10 16 0.00 0.00
10:54 pm 22:54 Clear 47 8.3 43 6.1 86 86 WNW 3 6 30.38 1029 10 16 0.00 0.00
11:54 pm 23:54 Clear 48 8.9 43 6.1 83 83 W 3 6 30.37 1028 10 16 0.00 0.00

Powered by AerisWeather